Location: Allen Lane School
(37.8198°N, 89.7382°W)
Time: 16:28:08
(UTC+00:00)

X-37B - Visible Passes

Search period start: 08 December 2022 00:00
Search period end: 18 December 2022 00:00
Orbit: 277 x 277 km, 45.0° (Epoch: 01 November)

Date Brightness Start Highest point End Pass type
(mag) Time Alt. Az. Time Alt. Az. Time Alt. Az.
08 Dec 0.0 23:29:30 10° WSW 23:31:56 69° NNW 23:33:32 19° NE visible
09 Dec 0.9 23:30:21 10° W 23:32:40 37° NNW 23:34:13 17° NE visible
10 Dec 1.6 23:31:20 10° WNW 23:33:26 24° NNW 23:34:52 15° NNE visible
11 Dec 2.0 23:32:24 10° WNW 23:34:15 18° NNW 23:35:31 14° NNE visible
12 Dec 2.2 23:33:28 10° NW 23:35:07 16° N 23:36:09 13° NNE visible
13 Dec 2.2 23:34:26 10° NW 23:35:59 15° N 23:36:50 13° NNE visible
14 Dec 2.0 23:35:14 10° NW 23:36:51 16° N 23:37:33 14° NNE visible
15 Dec 1.8 23:35:54 10° NW 23:37:42 18° N 23:38:21 16° NNE visible
16 Dec 1.4 23:36:29 10° NW 23:38:33 23° NNE 23:39:16 20° NE visible
17 Dec 0.7 23:37:02 10° NW 23:39:20 34° NNE 23:40:21 23° ENE visible
